QPF
0.00 0.00 0.00 0.00 0.00 0.00 0.00 0.00 0.00 0.00 0.00 0.00 0.00 0.00 0.00 0.00 0.00 0.00 0.00 0.00 0.00 0.00 0.00 0.00 0.00 0.00 0.00 0.00 0.00 0.00 0.00 0.00 0.00 0.00 0.00 0.00 0.00 0.00 0.00 0.00 0.00 0.00 0.00 0.00
0.00 0.00 0.00 0.00 0.00 0.00 0.00 0.00 0.00 0.00 0.00 0.00 0.00 0.00 0.00 0.00 0.00 0.00 0.00 0.00 0.00 0.00 0.00 0.00 0.00 0.00 0.00 0.00 0.00 0.00 0.00 0.00 0.00 0.00 0.00 0.00 0.00 0.00 0.00 0.00 0.00 0.00 0.00 0.00
0.00 0.00 0.00 0.00 0.00 0.00 0.00 0.00 0.00 0.00 0.00 0.00 0.00 0.00 0.00 0.00 0.00 0.00 0.00 0.00 0.00 0.00 0.00 0.00 0.00 0.00 0.00 0.00 0.00 0.00 0.00 0.00 0.00 0.00 0.00 0.00 0.00 0.00 0.00 0.00 0.00 0.00 0.00 0.00
0.00 0.00 0.00 0.00 0.00 0.00 0.00 0.00 0.00 0.00 0.00 0.00 0.00 0.00 0.00 0.00 0.00 0.00 0.00 0.00 0.00 0.00 0.00 0.00 0.00 0.00 0.00 0.00 0.00 0.00 0.00 0.00 0.00 0.00 0.00 0.00 0.00 0.00 0.00 0.00 0.00 0.00 0.00 0.00
0.00 0.00 0.00 0.00 0.00 0.00 0.00 0.00 0.00 0.00 0.00 0.00 0.00 0.00 0.00 0.00 0.00 0.00 0.00 0.00 0.00 0.00 0.00 0.00 0.00 0.00 0.00 0.00 0.00 0.00 0.00 0.00 0.00 0.00 0.00 0.00 0.00 0.00 0.00 0.00 0.00 0.00 0.00 0.00
0.00 0.00 0.00 0.00 0.00 0.00 0.00 0.00 0.00 0.00 0.00 0.00 0.00 0.00 0.00 0.00 0.00 0.00 0.00 0.00 0.00 0.00 0.00 0.00 0.00 0.00 0.00 0.00 0.00 0.00 0.00 0.00 0.00 0.00 0.00 0.00 0.00 0.00 0.00 0.00 0.00 0.00 0.00 0.01
0.00 0.00 0.00 0.00 0.00 0.00 0.00 0.00 0.00 0.00 0.00 0.00 0.00 0.00 0.00 0.00 0.00 0.00 0.00 0.00 0.00 0.00 0.00 0.00 0.00 0.00 0.00 0.00 0.00 0.00 0.00 0.00 0.00 0.00 0.00 0.00 0.00 0.00 0.00 0.00 0.01 0.00 0.01 0.00
0.00 0.00 0.00 0.00 0.00 0.00 0.00 0.00 0.00 0.00 0.00 0.00 0.00 0.00 0.00 0.00 0.00 0.00 0.00 0.00 0.00 0.00 0.00 0.00 0.00 0.00 0.00 0.00 0.00 0.00 0.00 0.00 0.00 0.00 0.00 0.00 0.00 0.01 0.01 0.02 0.03 0.02 0.00 0.00
0.00 0.00 0.00 0.00 0.00 0.00 0.00 0.00 0.00 0.00 0.00 0.00 0.00 0.00 0.00 0.00 0.00 0.00 0.00 0.00 0.00 0.00 0.00 0.00 0.00 0.00 0.00 0.00 0.00 0.00 0.00 0.00 0.00 0.00 0.00 0.00 0.00 0.01 0.01 0.01 0.00 0.01 0.00 0.00
0.00 0.00 0.00 0.00 0.00 0.00 0.00 0.00 0.00 0.00 0.00 0.00 0.00 0.00 0.00 0.00 0.00 0.00 0.00 0.00 0.00 0.00 0.00 0.00 0.00 0.00 0.00 0.00 0.00 0.00 0.00 0.00 0.00 0.00 0.00 0.00 0.00 0.00 0.00 0.00 0.00 0.00 0.00 0.00
0.00 0.00 0.00 0.00 0.00 0.00 0.00 0.00 0.00 0.00 0.00 0.00 0.00 0.00 0.00 0.00 0.00 0.00 0.00 0.00 0.00 0.00 0.00 0.00 0.00 0.00 0.00 0.00 0.00 0.00 0.00 0.00 0.00 0.00 0.00 0.00 0.00 0.00 0.00 0.00 0.00 0.00 0.00 0.00
0.00 0.00 0.00 0.00 0.00 0.00 0.00 0.00 0.00 0.00 0.00 0.00 0.00 0.00 0.00 0.00 0.00 0.00 0.00 0.00 0.00 0.00 0.00 0.00 0.00 0.00 0.00 0.00 0.00 0.00 0.00 0.00 0.00 0.00 0.00 0.00 0.00 0.00 0.00 0.00 0.00 0.00 0.00 0.00
0.00 0.00 0.00 0.00 0.00 0.00 0.00 0.00 0.00 0.00 0.00 0.00 0.00 0.00 0.00 0.00 0.00 0.00 0.00 0.00 0.00 0.00 0.00 0.00 0.00 0.00 0.00 0.00 0.00 0.00 0.00 0.00 0.00 0.00 0.00 0.00 0.00 0.00 0.00 0.00 0.00 0.00 0.00 0.00
0.00 0.00 0.00 0.00 0.00 0.00 0.00 0.00 0.00 0.00 0.00 0.00 0.00 0.00 0.00 0.00 0.00 0.00 0.00 0.00 0.00 0.00 0.00 0.00 0.00 0.00 0.00 0.00 0.00 0.00 0.00 0.00 0.00 0.00 0.00 0.00 0.00 0.00 0.00 0.00 0.00 0.00 0.00 0.00
0.00 0.00 0.00 0.00 0.00 0.00 0.00 0.00 0.00 0.00 0.00 0.00 0.00 0.00 0.00 0.00 0.00 0.00 0.00 0.00 0.00 0.00 0.00 0.00 0.00 0.00 0.00 0.00 0.00 0.00 0.00 0.00 0.00 0.00 0.00 0.00 0.00 0.00 0.00 0.00 0.00 0.00 0.00 0.00
0.00 0.00 0.00 0.00 0.00 0.00 0.00 0.00 0.00 0.00 0.00 0.00 0.00 0.00 0.00 0.00 0.00 0.00 0.00 0.00 0.00 0.00 0.00 0.00 0.00 0.00 0.00 0.00 0.00 0.00 0.00 0.00 0.00 0.00 0.00 0.00 0.00 0.00 0.00 0.00 0.00 0.00 0.00 0.00
0.00 0.00 0.00 0.00 0.00 0.00 0.00 0.00 0.00 0.00 0.00 0.00 0.00 0.00 0.00 0.00 0.00 0.00 0.00 0.00 0.00 0.00 0.00 0.00 0.00 0.00 0.00 0.00 0.00 0.00 0.00 0.00 0.00 0.00 0.00 0.00 0.00 0.00 0.00 0.00 0.00 0.00 0.00 0.00
0.00 0.00 0.00 0.00 0.00 0.00 0.00 0.00 0.00 0.00 0.00 0.00 0.00 0.00 0.00 0.00 0.00 0.00 0.00 0.00 0.00 0.00 0.00 0.00 0.00 0.00 0.00 0.00 0.00 0.00 0.00 0.00 0.00 0.00 0.00 0.00 0.00 0.00 0.00 0.00 0.00 0.00 0.00 0.00
0.00 0.00 0.00 0.00 0.00 0.00 0.00 0.00 0.00 0.00 0.00 0.00 0.00 0.00 0.00 0.00 0.00 0.00 0.00 0.00 0.00 0.00 0.00 0.00 0.00 0.00 0.00 0.00 0.00 0.00 0.00 0.00 0.00 0.00 0.00 0.00 0.00 0.00 0.00 0.00 0.00 0.00 0.00 0.00
0.00 0.00 0.00 0.00 0.00 0.00 0.00 0.00 0.00 0.00 0.00 0.00 0.00 0.00 0.00 0.00 0.00 0.00 0.00 0.00 0.00 0.00 0.00 0.00 0.00 0.00 0.00 0.00 0.00 0.00 0.00 0.00 0.00 0.00 0.00 0.00 0.00 0.00 0.00 0.00 0.00 0.00 0.00 0.00
0.00 0.00 0.00 0.00 0.00 0.00 0.00 0.00 0.00 0.00 0.00 0.00 0.00 0.00 0.00 0.00 0.00 0.00 0.00 0.00 0.00 0.00 0.00 0.00 0.00 0.00 0.00 0.00 0.00 0.00 0.00 0.00 0.00 0.00 0.00 0.00 0.00 0.00 0.00 0.00 0.00 0.00 0.00 0.00
0.00 0.00 0.00 0.00 0.00 0.00 0.00 0.00 0.00 0.00 0.00 0.00 0.00 0.00 0.00 0.00 0.00 0.00 0.00 0.00 0.00 0.00 0.00 0.00 0.00 0.00 0.00 0.00 0.00 0.00 0.00 0.00 0.00 0.00 0.00 0.00 0.00 0.00 0.00 0.00 0.00 0.00 0.00 0.00
0.00 0.00 0.00 0.00 0.00 0.00 0.00 0.00 0.00 0.00 0.00 0.00 0.00 0.00 0.00 0.00 0.00 0.00 0.00 0.00 0.00 0.00 0.00 0.00 0.00 0.00 0.00 0.00 0.00 0.00 0.00 0.00 0.00 0.00 0.00 0.00 0.00 0.00 0.00 0.00 0.00 0.00 0.00 0.00
0.00 0.00 0.00 0.00 0.00 0.00 0.00 0.00 0.00 0.00 0.00 0.00 0.00 0.00 0.00 0.00 0.00 0.00 0.00 0.00 0.00 0.00 0.00 0.00 0.00 0.00 0.00 0.00 0.00 0.00 0.00 0.00 0.00 0.00 0.00 0.00 0.00 0.00 0.00 0.00 0.00 0.00 0.00 0.00
0.00 0.00 0.00 0.00 0.00 0.00 0.00 0.00 0.00 0.00 0.00 0.00 0.00 0.00 0.00 0.00 0.00 0.00 0.00 0.00 0.00 0.00 0.00 0.00 0.00 0.00 0.00 0.00 0.00 0.00 0.00 0.00 0.00 0.00 0.00 0.00 0.00 0.00 0.00 0.00 0.00 0.00 0.00 0.00
0.00 0.00 0.00 0.00 0.00 0.00 0.00 0.00 0.00 0.00 0.00 0.00 0.00 0.00 0.00 0.00 0.00 0.00 0.00 0.00 0.00 0.00 0.00 0.00 0.00 0.00 0.00 0.00 0.00 0.00 0.00 0.00 0.00 0.00 0.00 0.00 0.00 0.00 0.00 0.00 0.00 0.00 0.00 0.00
MSLP
1022.56 1022.88 1022.92 1023.20 1023.34 1023.71 1024.22 1024.44 1024.13 1023.20 1022.08 1021.98 1020.87 1019.81 1018.40 1017.89 1017.80 1018.09 1018.31 1018.58 1018.81 1019.03 1018.81 1018.69 1018.44 1018.25 1017.96 1017.70 1017.32 1016.92 1016.54 1016.10 1015.48 1014.86 1014.42 1013.71 1012.89 1012.20 1011.08 1010.47 1009.91 1009.65 1009.43 1009.50
1023.70 1023.55 1023.23 1023.21 1023.36 1023.77 1024.16 1024.47 1024.22 1023.38 1022.67 1023.04 1021.38 1020.07 1018.12 1017.61 1017.77 1018.02 1018.41 1018.74 1019.20 1019.27 1019.10 1018.84 1018.58 1018.25 1018.03 1017.76 1017.40 1016.68 1016.15 1015.63 1015.05 1014.79 1014.15 1013.38 1012.47 1011.62 1011.02 1009.95 1009.34 1008.83 1008.66 1008.69
1024.40 1023.58 1023.14 1023.35 1023.54 1024.00 1024.11 1024.49 1024.47 1024.61 1023.98 1023.30 1022.61 1020.99 1018.80 1018.09 1017.90 1018.17 1018.55 1019.26 1019.62 1019.67 1019.44 1018.88 1018.64 1018.40 1018.07 1017.67 1017.17 1016.50 1015.68 1015.28 1014.64 1014.32 1013.55 1012.54 1011.67 1010.87 1010.08 1009.33 1008.77 1008.23 1007.95 1007.96
1024.68 1023.52 1023.28 1023.54 1023.70 1024.16 1024.33 1024.09 1024.47 1025.07 1025.84 1025.63 1024.28 1023.22 1020.26 1018.81 1018.66 1018.85 1019.36 1019.79 1019.99 1020.05 1019.66 1019.43 1018.97 1018.46 1017.96 1017.33 1016.92 1016.28 1015.39 1014.77 1014.14 1013.72 1012.97 1012.04 1011.05 1010.03 1009.27 1008.73 1008.09 1007.53 1007.21 1007.35
1024.54 1023.76 1023.63 1023.78 1023.72 1024.20 1024.46 1024.32 1024.80 1025.89 1027.34 1027.23 1025.82 1025.39 1020.97 1019.78 1019.60 1019.63 1019.89 1020.15 1020.23 1020.18 1020.12 1019.68 1019.21 1018.63 1017.91 1017.19 1016.66 1015.99 1015.10 1014.44 1013.74 1013.29 1012.48 1011.41 1010.18 1009.19 1008.38 1007.99 1007.64 1007.07 1006.62 1006.69
1024.85 1024.10 1024.00 1023.93 1023.83 1024.06 1024.66 1024.96 1025.75 1026.87 1028.06 1028.40 1026.97 1026.00 1022.10 1020.69 1019.92 1020.14 1020.29 1020.39 1020.48 1020.36 1020.12 1019.81 1019.27 1018.54 1017.84 1017.14 1016.54 1015.78 1014.79 1013.87 1013.26 1012.69 1011.77 1010.63 1009.27 1007.72 1007.41 1007.23 1006.98 1006.34 1006.02 1006.08
1025.44 1024.82 1024.28 1024.28 1024.38 1024.79 1025.48 1026.81 1028.49 1029.22 1029.53 1028.92 1027.35 1026.38 1022.27 1020.81 1020.47 1020.56 1020.91 1020.74 1020.60 1020.23 1020.03 1019.41 1018.80 1018.24 1017.64 1016.97 1016.25 1015.44 1014.47 1013.57 1012.86 1012.07 1011.13 1010.01 1008.30 1006.97 1006.82 1006.57 1006.45 1005.80 1005.64 1005.75
1027.13 1025.87 1025.18 1024.72 1025.04 1026.17 1026.84 1027.90 1030.06 1031.21 1030.96 1029.72 1027.98 1026.22 1021.88 1020.72 1020.67 1020.85 1020.96 1020.76 1020.45 1020.09 1019.60 1019.12 1018.62 1017.96 1017.40 1016.72 1015.97 1015.27 1014.34 1013.29 1012.44 1011.56 1010.67 1009.66 1008.10 1007.15 1006.64 1006.34 1006.11 1005.77 1005.75 1005.74
1027.45 1026.64 1025.72 1025.39 1025.49 1026.44 1027.54 1028.59 1029.28 1030.88 1031.56 1030.92 1028.11 1025.01 1022.05 1021.40 1021.27 1021.25 1021.29 1020.67 1020.61 1020.17 1019.58 1019.07 1018.47 1017.85 1017.21 1016.50 1015.68 1015.00 1014.04 1012.97 1011.98 1011.11 1010.33 1009.39 1008.14 1007.30 1006.77 1006.44 1006.14 1006.18 1006.00 1005.95
1027.64 1027.81 1026.70 1026.19 1026.31 1026.97 1027.52 1028.57 1029.83 1031.20 1031.80 1031.15 1028.21 1026.09 1023.56 1022.55 1022.23 1022.15 1021.53 1021.50 1020.92 1020.28 1019.63 1018.91 1018.44 1017.87 1017.21 1016.50 1015.64 1014.80 1013.99 1013.05 1011.99 1010.95 1010.05 1009.11 1008.07 1007.34 1007.01 1006.47 1006.41 1006.51 1006.35 1006.32
1027.57 1028.40 1027.57 1027.04 1026.85 1026.73 1028.03 1028.72 1029.70 1030.59 1030.96 1031.01 1029.29 1024.94 1022.16 1022.22 1022.64 1022.75 1022.23 1021.75 1021.03 1020.64 1019.52 1018.89 1018.35 1017.94 1017.35 1016.60 1015.80 1014.96 1014.00 1013.09 1012.11 1011.18 1010.08 1009.00 1008.12 1007.46 1007.04 1006.83 1007.01 1006.80 1006.80 1006.69
1027.17 1028.00 1028.31 1026.89 1025.93 1025.64 1026.49 1027.40 1028.37 1029.61 1030.02 1029.70 1028.94 1023.97 1021.18 1021.68 1022.31 1022.46 1022.20 1021.69 1021.09 1020.53 1019.59 1018.91 1018.40 1017.88 1017.35 1016.77 1016.00 1015.16 1014.23 1013.24 1012.26 1011.21 1010.16 1009.19 1008.31 1007.78 1007.47 1007.40 1007.17 1006.95 1007.01 1006.89
1026.81 1027.97 1028.33 1027.29 1026.94 1026.36 1026.70 1026.72 1027.13 1028.14 1028.53 1028.45 1028.43 1023.64 1021.29 1021.85 1022.32 1022.32 1022.35 1021.45 1021.46 1020.52 1019.86 1018.94 1018.26 1017.92 1017.54 1016.96 1016.18 1015.31 1014.37 1013.34 1012.27 1011.23 1010.31 1009.47 1008.84 1008.36 1007.99 1007.69 1007.45 1007.24 1007.09 1007.00
1026.46 1027.56 1028.05 1027.72 1027.30 1027.10 1026.94 1026.30 1026.45 1027.22 1028.49 1027.04 1025.05 1022.85 1020.38 1021.04 1021.73 1022.00 1021.92 1021.45 1021.43 1021.42 1020.54 1019.35 1018.68 1017.98 1017.69 1017.10 1016.25 1015.35 1014.43 1013.47 1012.38 1011.35 1010.48 1009.81 1009.25 1008.74 1008.32 1008.00 1007.71 1007.48 1007.22 1007.31
1026.98 1028.12 1028.24 1027.42 1026.90 1026.92 1026.18 1025.44 1025.83 1026.11 1025.46 1025.91 1022.21 1022.80 1020.25 1020.10 1021.13 1021.39 1021.23 1021.53 1021.44 1021.62 1020.95 1019.84 1019.23 1018.30 1018.08 1017.27 1016.28 1015.43 1014.53 1013.53 1012.51 1011.50 1010.67 1010.04 1009.48 1008.98 1008.64 1008.42 1008.20 1008.05 1007.92 1007.94
1027.19 1028.20 1028.85 1028.15 1026.62 1026.09 1025.29 1023.75 1023.67 1024.16 1024.59 1024.19 1022.80 1021.86 1019.35 1019.46 1020.43 1021.25 1021.81 1021.91 1021.80 1021.89 1021.41 1020.34 1019.82 1018.77 1018.49 1017.66 1016.73 1015.73 1014.73 1013.79 1012.85 1011.95 1011.16 1010.51 1009.92 1009.44 1009.08 1008.88 1008.64 1008.53 1008.64 1008.60
1027.60 1028.72 1029.95 1028.90 1027.38 1026.19 1023.77 1020.60 1021.10 1021.92 1022.04 1021.93 1021.94 1019.77 1019.39 1020.08 1020.71 1020.54 1021.25 1021.24 1021.42 1021.76 1021.13 1020.41 1020.21 1019.43 1018.69 1018.16 1017.12 1016.11 1015.18 1014.25 1013.27 1012.58 1011.83 1011.15 1010.58 1010.05 1009.71 1009.48 1009.33 1009.36 1009.33 1009.36
1027.78 1029.12 1030.12 1029.89 1028.39 1025.53 1020.10 1019.04 1019.05 1019.52 1019.19 1019.63 1019.21 1018.51 1018.80 1019.30 1019.50 1019.28 1019.94 1020.08 1020.59 1020.96 1020.57 1020.26 1019.87 1019.68 1018.63 1018.34 1017.35 1016.49 1015.60 1014.78 1013.89 1013.16 1012.48 1011.88 1011.40 1010.97 1010.63 1010.32 1010.29 1010.18 1010.13 1010.24
1027.29 1028.62 1030.11 1030.49 1029.31 1024.25 1019.39 1018.06 1017.83 1017.85 1016.83 1016.36 1017.35 1017.07 1017.57 1018.36 1018.49 1018.09 1018.19 1018.50 1019.14 1019.73 1019.74 1019.45 1019.35 1019.63 1018.72 1018.22 1017.69 1016.99 1016.13 1015.32 1014.56 1013.98 1013.31 1012.61 1012.13 1011.75 1011.47 1011.24 1011.24 1011.19 1011.01 1011.10
1027.69 1028.14 1029.30 1030.61 1029.06 1024.76 1018.99 1017.20 1016.66 1016.59 1015.79 1014.31 1015.10 1015.69 1016.62 1017.54 1017.99 1017.45 1017.47 1017.66 1018.22 1018.63 1018.98 1018.98 1018.78 1019.16 1018.82 1018.25 1017.83 1017.39 1016.91 1016.31 1015.66 1015.09 1014.26 1013.50 1012.96 1012.67 1012.47 1012.36 1012.26 1012.28 1012.06 1012.09
1028.12 1028.43 1028.23 1028.44 1027.35 1023.08 1017.75 1016.84 1016.69 1016.41 1014.58 1013.40 1013.88 1014.58 1015.68 1016.43 1016.31 1016.26 1016.83 1017.28 1017.55 1018.07 1018.52 1018.74 1018.78 1019.02 1019.10 1018.72 1018.25 1018.02 1017.68 1017.30 1016.80 1015.96 1015.24 1014.67 1014.23 1013.90 1013.65 1013.58 1013.47 1013.12 1012.95 1012.77
1026.03 1026.76 1027.00 1026.77 1025.40 1020.90 1016.06 1016.65 1015.79 1013.74 1013.17 1013.09 1013.35 1013.88 1014.70 1015.04 1015.74 1016.22 1016.56 1017.16 1017.40 1017.84 1018.35 1018.61 1018.95 1019.17 1019.39 1019.18 1018.82 1018.61 1018.53 1018.15 1017.56 1016.67 1016.15 1015.61 1015.20 1015.01 1014.90 1014.58 1014.40 1014.32 1014.25 1014.23
1024.07 1022.40 1022.72 1022.07 1018.45 1015.44 1014.67 1013.30 1012.67 1012.20 1012.89 1012.96 1013.17 1013.49 1014.14 1014.86 1015.55 1015.92 1016.33 1016.98 1017.28 1017.61 1018.28 1018.75 1019.09 1019.43 1019.65 1019.69 1019.60 1019.41 1019.13 1018.78 1018.16 1017.45 1016.81 1016.60 1016.41 1016.17 1015.93 1015.73 1015.72 1015.65 1015.46 1015.47
1021.34 1020.24 1020.17 1019.39 1014.44 1014.01 1013.70 1013.10 1012.82 1012.66 1012.51 1012.33 1012.75 1013.27 1013.95 1014.57 1015.02 1015.60 1016.13 1016.78 1017.50 1017.75 1018.35 1019.10 1019.36 1019.58 1019.92 1020.14 1020.16 1020.09 1019.69 1019.20 1018.69 1018.09 1017.54 1017.25 1017.05 1016.93 1016.88 1016.73 1016.78 1016.71 1016.59 1016.48
1018.43 1018.58 1017.71 1016.12 1013.35 1013.07 1012.30 1011.98 1011.67 1011.85 1012.09 1012.34 1012.61 1013.01 1013.52 1014.12 1014.64 1015.01 1015.73 1016.40 1017.08 1017.64 1018.40 1019.11 1019.44 1019.81 1020.08 1020.22 1020.51 1020.57 1020.13 1019.72 1019.34 1018.98 1018.62 1018.24 1017.75 1017.60 1017.73 1017.82 1017.88 1017.70 1017.75 1017.97
1016.12 1015.03 1015.20 1012.76 1010.06 1011.12 1010.60 1010.50 1010.80 1011.65 1012.01 1011.84 1012.51 1013.13 1013.18 1013.59 1013.96 1014.57 1015.20 1015.61 1016.51 1017.36 1018.08 1018.76 1019.35 1019.74 1020.00 1020.31 1020.62 1020.67 1020.32 1019.92 1019.68 1019.38 1019.00 1018.78 1018.78 1018.93 1018.90 1018.66 1018.46 1018.29 1018.30 1018.39
Thickness
5532 5509 5491 5523 5524 5521 5512 5502 5486 5492 5506 5492 5498 5497 5499 5496 5485 5472 5470 5463 5456 5448 5448 5443 5439 5436 5434 5431 5429 5430 5434 5439 5444 5451 5458 5467 5477 5490 5509 5524 5537 5548 5558 5566
5506 5493 5521 5521 5519 5511 5500 5463 5462 5487 5499 5480 5478 5479 5492 5486 5476 5468 5462 5458 5444 5437 5433 5431 5426 5421 5415 5410 5407 5408 5413 5420 5427 5431 5440 5450 5462 5477 5488 5506 5521 5533 5543 5553
5487 5519 5519 5511 5503 5486 5487 5462 5460 5469 5469 5463 5459 5455 5488 5481 5472 5466 5460 5445 5430 5423 5417 5415 5410 5402 5396 5390 5386 5386 5391 5395 5403 5409 5421 5435 5449 5463 5478 5493 5506 5519 5528 5537
5486 5511 5508 5495 5491 5480 5453 5491 5480 5462 5421 5409 5444 5402 5453 5471 5460 5454 5439 5423 5414 5404 5402 5396 5390 5384 5377 5374 5371 5371 5375 5378 5382 5387 5399 5415 5432 5450 5466 5479 5492 5506 5516 5520
5491 5501 5497 5472 5488 5481 5474 5477 5469 5458 5393 5406 5410 5380 5436 5461 5449 5439 5422 5415 5403 5394 5386 5380 5373 5367 5360 5358 5358 5357 5359 5360 5362 5365 5375 5393 5416 5437 5451 5464 5476 5492 5502 5510
5470 5489 5483 5483 5481 5481 5474 5453 5445 5429 5383 5371 5382 5379 5428 5439 5443 5424 5413 5404 5395 5384 5377 5369 5361 5354 5348 5344 5340 5338 5341 5344 5346 5349 5358 5373 5400 5428 5440 5452 5465 5480 5492 5501
5465 5468 5479 5474 5465 5463 5441 5404 5367 5378 5363 5392 5357 5391 5423 5433 5423 5417 5402 5391 5383 5379 5368 5362 5355 5347 5340 5333 5328 5329 5331 5332 5334 5338 5346 5358 5387 5412 5427 5440 5453 5469 5480 5489
5414 5444 5438 5468 5456 5428 5428 5397 5368 5349 5365 5377 5352 5374 5426 5429 5419 5410 5397 5387 5381 5373 5366 5357 5349 5342 5335 5330 5325 5322 5322 5324 5326 5330 5338 5349 5372 5394 5412 5427 5441 5456 5466 5476
5406 5433 5456 5455 5452 5431 5413 5389 5406 5345 5321 5351 5361 5393 5432 5421 5393 5396 5389 5387 5374 5367 5358 5350 5343 5337 5331 5327 5324 5320 5319 5322 5326 5330 5337 5349 5367 5382 5398 5414 5429 5439 5453 5464
5427 5408 5418 5432 5437 5419 5406 5405 5373 5338 5333 5326 5353 5345 5416 5391 5382 5377 5386 5371 5364 5356 5350 5347 5339 5331 5326 5323 5322 5320 5320 5321 5326 5334 5342 5354 5367 5379 5390 5406 5418 5428 5440 5450
5407 5387 5412 5425 5391 5396 5377 5370 5362 5356 5363 5328 5322 5378 5397 5395 5372 5367 5371 5366 5356 5344 5345 5341 5336 5325 5321 5318 5317 5317 5319 5322 5326 5333 5344 5355 5366 5377 5386 5397 5407 5420 5428 5438
5424 5405 5384 5408 5433 5431 5402 5386 5390 5356 5341 5352 5358 5414 5386 5385 5376 5364 5371 5362 5355 5340 5342 5339 5331 5325 5318 5314 5312 5313 5317 5321 5326 5334 5343 5354 5363 5371 5379 5389 5401 5412 5420 5429
5420 5376 5353 5405 5408 5411 5393 5402 5399 5366 5377 5370 5332 5385 5383 5361 5360 5364 5362 5364 5348 5345 5340 5340 5333 5323 5316 5310 5309 5310 5313 5320 5327 5334 5342 5351 5357 5365 5373 5383 5394 5404 5413 5423
5423 5411 5390 5399 5392 5362 5380 5399 5400 5380 5321 5351 5376 5408 5440 5419 5375 5368 5364 5357 5341 5333 5333 5336 5331 5325 5314 5309 5307 5307 5312 5317 5326 5335 5342 5348 5354 5362 5370 5379 5389 5398 5409 5417
5401 5378 5396 5400 5391 5375 5398 5397 5381 5377 5392 5365 5431 5366 5416 5422 5395 5399 5373 5342 5352 5337 5332 5332 5326 5327 5314 5309 5309 5310 5311 5316 5323 5331 5338 5344 5352 5360 5368 5375 5383 5392 5401 5408
5399 5359 5358 5361 5401 5399 5390 5410 5401 5390 5389 5382 5399 5402 5427 5421 5363 5365 5367 5342 5352 5327 5327 5328 5320 5325 5316 5312 5311 5311 5313 5315 5319 5325 5333 5340 5347 5355 5364 5371 5379 5386 5392 5399
5382 5355 5333 5353 5376 5363 5392 5399 5393 5379 5363 5371 5358 5401 5368 5380 5367 5365 5366 5352 5352 5332 5326 5331 5321 5322 5320 5315 5314 5313 5313 5312 5319 5322 5327 5335 5343 5351 5358 5366 5372 5378 5385 5391
5355 5350 5315 5328 5328 5358 5443 5428 5412 5408 5408 5388 5389 5398 5390 5386 5373 5375 5359 5366 5360 5336 5333 5333 5326 5319 5324 5316 5319 5319 5316 5316 5320 5323 5326 5332 5337 5344 5352 5359 5364 5371 5378 5384
5378 5349 5328 5321 5266 5373 5449 5429 5421 5423 5442 5427 5417 5421 5394 5387 5400 5398 5385 5377 5363 5353 5348 5341 5335 5329 5328 5325 5324 5324 5324 5322 5323 5324 5326 5331 5336 5341 5348 5357 5362 5369 5376 5380
5373 5366 5343 5280 5300 5327 5443 5438 5434 5431 5412 5448 5430 5430 5421 5405 5398 5395 5399 5391 5383 5374 5365 5358 5351 5341 5336 5333 5332 5332 5327 5327 5326 5327 5331 5334 5338 5343 5347 5352 5358 5362 5367 5372
5335 5339 5354 5349 5308 5346 5416 5424 5422 5385 5436 5447 5442 5434 5411 5409 5411 5408 5397 5391 5385 5378 5370 5362 5355 5346 5339 5337 5336 5334 5331 5328 5328 5331 5334 5337 5340 5343 5346 5349 5355 5362 5365 5373
5349 5333 5322 5315 5304 5345 5418 5408 5414 5433 5436 5441 5436 5428 5417 5415 5405 5399 5395 5390 5385 5379 5372 5365 5359 5352 5343 5340 5339 5337 5333 5331 5333 5337 5339 5341 5343 5344 5346 5351 5356 5360 5366 5371
5357 5377 5357 5367 5390 5424 5414 5430 5431 5428 5428 5432 5430 5425 5417 5411 5402 5397 5393 5389 5384 5380 5374 5364 5360 5354 5348 5343 5340 5339 5337 5337 5338 5341 5344 5344 5345 5347 5349 5353 5357 5361 5367 5371
5368 5377 5372 5370 5434 5421 5420 5420 5417 5417 5419 5424 5423 5419 5411 5408 5397 5393 5383 5383 5379 5372 5366 5360 5357 5356 5351 5345 5344 5341 5341 5342 5345 5347 5351 5352 5353 5353 5354 5356 5358 5361 5365 5369
5393 5378 5374 5375 5415 5415 5420 5417 5420 5416 5413 5408 5405 5409 5409 5404 5398 5398 5388 5384 5379 5372 5364 5360 5359 5355 5352 5349 5346 5344 5347 5347 5349 5350 5353 5357 5358 5358 5359 5359 5359 5362 5363 5363
5389 5408 5398 5426 5456 5435 5443 5430 5408 5410 5402 5408 5403 5394 5392 5401 5402 5395 5390 5389 5382 5374 5368 5364 5362 5359 5357 5353 5350 5349 5351 5354 5356 5357 5358 5361 5361 5358 5356 5358 5361 5365 5367 5368